Hourly Data Report for April 11, 2012

HALIFAX STANFIELD INT'L A
NOVA SCOTIA

44°52'48.060" N
63°30'00.050" W
145.40 m
8202250
71395
YHZ

Download Data

Hourly Data (April 2012)
Hourly Data Report for April 11, 2012
TIME
LST
Temp Definition
°C
Dew Point Definition
°C
Rel Hum Definition
%
Precip. Amount Definition
mm

Wind Dir Definition
10's deg

Wind Spd Definition
km/h
Visibility Definition
km
Stn Press Definition
kPa
Hmdx Definition


Wind Chill Definition


Weather Definition


00:00 0.9 0.2 95   20 9 16.1 99.09     Clear
01:00 1.2 -0.2 90   21 13 19.3 99.10     Clear
02:00 -0.8 -1.6 94   20 13 24.1 99.10   -5 Clear
03:00 -0.9 -1.6 95   17 17 24.1 99.11   -6 Clear
04:00 -1.0 -1.6 96   18 13 19.3 99.12   -5 Clear
05:00 -0.5 -0.6 99   21 13 19.3 99.15   -5 Mainly Clear
06:00 -1.1 -1.8 95   19 19 24.1 99.21   -6 Mainly Clear
07:00 3.0 2.1 94   18 15 24.1 99.29     Mainly Clear
08:00 6.9 4.2 83   20 19 24.1 99.34     Mainly Clear
09:00 10.7 2.3 56   21 26 24.1 99.38     Clear
10:00 13.2 -0.5 39   21 28 24.1 99.41     Clear
11:00 14.4 0.3 38   22 33 24.1 99.40     Mainly Clear
12:00 15.0 0.5 37   21 28 24.1 99.47     Mostly Cloudy
13:00 15.3 -0.3 34   19 20 24.1 99.45     Mostly Cloudy
14:00 13.9 2.9 47   18 22 24.1 99.40     Mostly Cloudy
15:00 14.4 1.7 42   17 24 24.1 99.32     Mostly Cloudy
16:00 12.9 2.2 48   17 15 24.1 99.37     Mostly Cloudy
17:00 11.2 2.2 54   14 13 24.1 99.36     Cloudy
18:00 9.9 1.7 57   13 6 24.1 99.35     Cloudy
19:00 8.4 2.6 67   11 6 24.1 99.28     Cloudy
20:00 7.6 3.0 73   14 15 24.1 99.33     Cloudy
21:00 6.5 3.5 81   15 15 24.1 99.32     Cloudy
22:00 5.5 3.2 85   13 15 24.1 99.30     Rain Showers
23:00 4.8 3.4 91   13 17 24.1 99.24     Rain Showers

Notes on Data Quality.

Legend

  • E = Estimated
  • M = Missing
  • NA = Not Available*
  • [empty] = Indicates an unobserved value
Date modified: